Meeting du Muguet

Départementale

TAGOLSHEIM

Le Mercredi 01 Mai 2013

Bassin de 25m

50 Papillon Messieurs

Séries

Nom Année Club Pays Temps Points Niv.
1 LE BRAS Florian 1994 MULHOUSE ON FRA 0:28:77 1049
2 SCHOENIG Quentin 1992 A.N.S D'ILLFURTH FRA 0:28:80 1048
3 WILLNAT Luis 1997 MULHOUSE ON FRA 0:29:64 1000
4 PELAGATTI Kenzo 1999 MULHOUSE ON FRA 0:30:48 953
5 MEYER Christophe 1995 THANN OLYMPIC N FRA 0:30:71 940
6 CANTARUTTI Pierre 1992 A.N.S D'ILLFURTH FRA 0:30:83 933
7 MULLER Matthieu 1993 CN ILE DU RHIN FRA 0:30:84 933
8 GREDER Valentin 1995 SR CERNAY FRA 0:31:18 914
9 FUCHS Tristan 1998 MULHOUSE ON FRA 0:32:21 860
10 BRAVO Luca 1998 A.N.S D'ILLFURTH FRA 0:32:26 857
11 MEYER Quentin 1995 A.N.S D'ILLFURTH FRA 0:32:32 854
12 MEYER Florian 1995 A.N.S D'ILLFURTH FRA 0:32:46 847
13 DEWULF Mickael 1995 CLUB NAUTIQUE DE LA DOLLER FRA 0:32:53 843
14 BECK Vincent 1997 MULHOUSE ON FRA 0:32:94 822
15 GRABIS Mehdi 1995 THANN OLYMPIC N FRA 0:33:01 818
16 GIRARDET Noe 1999 MULHOUSE ON FRA 0:33:05 816
17 KUBLER Alexis 1999 CNHT WESSERLING FRA 0:34:39 749
18 WIOLAND Guillaume 1996 A.N.S D'ILLFURTH FRA 0:34:84 727
19 BIRO Charly 1999 CN SAUSHEIM FRA 0:36:12 667
20 DEWULF Florian 1997 CLUB NAUTIQUE DE LA DOLLER FRA 0:36:36 656
21 GREDER Maxime 1999 SR CERNAY FRA 0:36:41 654
22 PETITJEAN Victor 1999 MULHOUSE ON FRA 0:36:47 651
23 BOURRE Maxime 1998 CNHT WESSERLING FRA 0:38:36 567
24 SAVARY Adrien 2000 CN ILE DU RHIN FRA 0:39:83 507
25 TURPIN Matheo 2001 SR CERNAY FRA 0:40:01 499
26 PREVOT Noah 2001 KAYSERSBERG NATATION FRA 0:40:28 489
27 ALLENBACH Lucas 2000 CNHT WESSERLING FRA 0:40:43 483
28 KLEITZ Guillaume 2002 MULHOUSE ON FRA 0:41:53 441
29 KURKOWSKI Maxime 2003 MULHOUSE ON FRA 0:42:59 402
30 LUMIA Hugo 2001 CNHT WESSERLING FRA 0:43:92 355
31 CHOCHOLATY Tomas 2004 RÉPUBLIQUE TCHÈQUE CZE 0:46:41 276
32 SCHMELTZ Nathan 2003 THANN OLYMPIC N FRA 0:46:92 261
33 MANDRY Olivier 1992 CN ILE DU RHIN FRA 0:46:98 260
34 CANALE Loïc 2003 A.N.S D'ILLFURTH FRA 0:47:61 242
35 MASSON Nathanaël 2002 KAYSERSBERG NATATION FRA 0:47:91 234
36 WALTZER Thomas 2001 A.N.S D'ILLFURTH FRA 0:48:70 213
37 STUDER Thomas 2003 CNHT WESSERLING FRA 0:48:86 208
38 MANYIM Franck 2001 CNHT WESSERLING FRA 0:49:84 184
39 JUDAS Nathan 2003 THANN OLYMPIC N FRA 0:52:11 133
40 CAILLEAUD Joachim 2004 THANN OLYMPIC N FRA 0:52:32 129
41 LEHMANN Lucas 2003 THANN OLYMPIC N FRA 0:55:37 74
42 FROEHLY Lucas 2003 DAUPHINS DE ST-LOUIS FRA 1:00:10 19
43 CARRETTE Julien 2002 DAUPHINS DE ST-LOUIS FRA 1:00:35 17
44 GOETSCHY Nathan 2002 DAUPHINS DE ST-LOUIS FRA 1:07:04 1